Location: Norwich
(42.5310°N, 75.5240°W)
Time: 19:36:24
(UTC-04:00)

ISS - Visible Passes

Search period start: 20 October 2019 00:00
Search period end: 30 October 2019 00:00
Orbit: 411 x 421 km, 51.6° (Epoch: 21 October)

Date Brightness Start Highest point End Pass type
(mag) Time Alt. Az. Time Alt. Az. Time Alt. Az.
23 Oct -0.8 06:13:37 10° SSE 06:15:33 15° SE 06:17:29 10° E visible
25 Oct -2.4 06:11:38 10° SSW 06:14:47 38° SE 06:17:56 10° ENE visible
26 Oct -1.7 05:25:34 21° SSE 05:26:18 22° SE 05:29:00 10° E visible
27 Oct -0.2 04:39:33 10° E 04:39:33 10° E 04:39:34 10° E visible
27 Oct -3.9 06:12:29 27° WSW 06:14:11 79° NNW 06:17:34 10° NE visible
28 Oct -2.7 05:26:18 46° E 05:26:18 46° E 05:28:54 10° ENE visible
28 Oct -2.5 06:59:35 10° W 07:02:31 27° NNW 07:05:26 10° NE visible
29 Oct -0.2 04:39:58 11° ENE 04:39:58 11° ENE 04:40:07 10° ENE visible
29 Oct -3.0 06:12:52 30° WNW 06:13:43 36° NNW 06:16:53 10° NE visible
